| time (UTC) | temp C | wind direction | speed KPH | gust KPH | rain 1hr cm | rain 24hr cm | rain mn cm | humidity % | barometer mb |
| 20260506105017 | 12 | 0 | 0.0 | 0.0 | 0.00 | 0.00 | 0.00 | 85 | 1018.9 |
| 20260506104544 | 12 | 0 | 0.0 | 1.6 | 0.00 | 0.00 | 0.00 | 85 | 1019.0 |
| 20260506104017 | 12 | 0 | 0.0 | 1.6 | 0.00 | 0.00 | 0.00 | 85 | 1018.9 |
| 20260506103521 | 12 | 0 | 0.0 | 1.6 | 0.00 | 0.00 | 0.00 | 85 | 1019.0 |
| 20260506103038 | 12 | 0 | 0.0 | 1.6 | 0.00 | 0.00 | 0.00 | 85 | 1018.9 |
| 20260506102517 | 12 | 0 | 0.0 | 3.2 | 0.00 | 0.00 | 0.00 | 85 | 1018.9 |
| 20260506102017 | 12 | 0 | 0.0 | 3.2 | 0.00 | 0.00 | 0.00 | 85 | 1018.9 |
| 20260506101537 | 12 | 319 | 0.0 | 0.0 | 0.00 | 0.00 | 0.00 | 85 | 1018.8 |
| 20260506101016 | 12 | 0 | 0.0 | 1.6 | 0.00 | 0.00 | 0.00 | 85 | 1018.8 |
| 20260506100519 | 12 | 0 | 0.0 | 3.2 | 0.00 | 0.00 | 0.00 | 85 | 1018.8 |
| 20260506100037 | 12 | 298 | 0.0 | 3.2 | 0.00 | 0.00 | 0.00 | 85 | 1018.7 |
| 20260506095516 | 12 | 283 | 0.0 | 3.2 | 0.00 | 0.03 | 0.00 | 85 | 1018.6 |
| 20260506095017 | 12 | 0 | 0.0 | 3.2 | 0.00 | 0.03 | 0.00 | 85 | 1018.8 |
| 20260506094536 | 12 | 0 | 0.0 | 1.6 | 0.00 | 0.03 | 0.00 | 85 | 1018.8 |
| 20260506094017 | 12 | 0 | 0.0 | 0.0 | 0.00 | 0.03 | 0.00 | 85 | 1019.0 |
| 20260506093520 | 12 | 0 | 0.0 | 0.0 | 0.00 | 0.03 | 0.00 | 85 | 1018.9 |
| 20260506093034 | 12 | 0 | 0.0 | 0.0 | 0.00 | 0.03 | 0.00 | 84 | 1018.9 |
| 20260506092520 | 12 | 0 | 0.0 | 0.0 | 0.00 | 0.03 | 0.00 | 84 | 1018.9 |
| 20260506092019 | 12 | 0 | 0.0 | 0.0 | 0.00 | 0.03 | 0.00 | 84 | 1018.7 |
| 20260506091541 | 12 | 0 | 0.0 | 1.6 | 0.00 | 0.03 | 0.00 | 84 | 1018.7 |
| 20260506091016 | 12 | 0 | 0.0 | 1.6 | 0.00 | 0.03 | 0.00 | 84 | 1018.7 |
| 20260506090516 | 12 | 0 | 0.0 | 0.0 | 0.00 | 0.03 | 0.00 | 84 | 1018.8 |
| 20260506090041 | 12 | 0 | 0.0 | 1.6 | 0.00 | 0.03 | 0.00 | 84 | 1018.7 |
| 20260506085520 | 12 | 0 | 0.0 | 1.6 | 0.00 | 0.10 | 0.00 | 84 | 1018.8 |
| 20260506085019 | 12 | 0 | 0.0 | 0.0 | 0.00 | 0.10 | 0.00 | 84 | 1018.7 |
| 20260506084541 | 12 | 0 | 0.0 | 0.0 | 0.00 | 0.10 | 0.00 | 84 | 1018.8 |
| 20260506084022 | 12 | 0 | 0.0 | 3.2 | 0.00 | 0.10 | 0.00 | 84 | 1018.8 |
| 20260506083520 | 12 | 0 | 0.0 | 3.2 | 0.00 | 0.10 | 0.00 | 84 | 1018.8 |
| 20260506083037 | 12 | 0 | 0.0 | 0.0 | 0.00 | 0.10 | 0.00 | 84 | 1018.9 |
| 20260506082518 | 12 | 0 | 0.0 | 0.0 | 0.00 | 0.10 | 0.00 | 84 | 1018.9 |
| 20260506082018 | 12 | 0 | 0.0 | 1.6 | 0.00 | 0.10 | 0.00 | 84 | 1018.9 |
| 20260506081544 | 12 | 0 | 0.0 | 1.6 | 0.00 | 0.10 | 0.00 | 84 | 1018.9 |
| 20260506081019 | 12 | 0 | 0.0 | 1.6 | 0.00 | 0.10 | 0.00 | 84 | 1018.9 |
| 20260506080518 | 12 | 0 | 0.0 | 1.6 | 0.00 | 0.10 | 0.00 | 84 | 1019.0 |
| 20260506073519 | 12 | 297 | 0.0 | 3.2 | 0.00 | 0.20 | 0.00 | 84 | 1018.7 |
| 20260506073037 | 12 | 0 | 0.0 | 1.6 | 0.00 | 0.20 | 0.00 | 84 | 1018.6 |
| 20260506072519 | 12 | 0 | 0.0 | 3.2 | 0.00 | 0.20 | 0.00 | 84 | 1018.7 |
| 20260506072019 | 12 | 0 | 0.0 | 3.2 | 0.00 | 0.20 | 0.00 | 84 | 1018.5 |
| 20260506071539 | 12 | 0 | 0.0 | 1.6 | 0.00 | 0.20 | 0.00 | 84 | 1018.6 |
| 20260506071018 | 12 | 0 | 0.0 | 3.2 | 0.00 | 0.20 | 0.00 | 84 | 1018.5 |
| 20260506070521 | 12 | 0 | 0.0 | 3.2 | 0.00 | 0.20 | 0.00 | 85 | 1018.5 |
| 20260506062019 | 12 | 0 | 0.0 | 1.6 | 0.00 | 0.23 | 0.20 | 85 | 1018.1 |
| 20260506061540 | 12 | 0 | 0.0 | 1.6 | 0.00 | 0.23 | 0.20 | 84 | 1018.2 |
| 20260506061019 | 12 | 0 | 0.0 | 0.0 | 0.00 | 0.23 | 0.20 | 84 | 1018.1 |
| 20260506060518 | 12 | 0 | 0.0 | 1.6 | 0.00 | 0.23 | 0.20 | 84 | 1018.1 |
| 20260506051018 | 12 | 0 | 0.0 | 3.2 | 0.00 | 0.30 | 0.20 | 85 | 1018.0 |
| 20260506050518 | 12 | 0 | 0.0 | 1.6 | 0.00 | 0.30 | 0.20 | 85 | 1017.9 |
| 20260506045018 | 12 | 307 | 0.0 | 4.8 | 0.00 | 0.33 | 0.20 | 84 | 1017.7 |
| 20260506044545 | 12 | 294 | 0.0 | 3.2 | 0.00 | 0.33 | 0.20 | 84 | 1017.8 |
| 20260506044017 | 12 | 280 | 0.0 | 1.6 | 0.00 | 0.33 | 0.20 | 85 | 1017.8 |
| 20260506043518 | 12 | 0 | 0.0 | 1.6 | 0.00 | 0.33 | 0.20 | 85 | 1017.7 |
| 20260506043037 | 12 | 0 | 0.0 | 1.6 | 0.00 | 0.33 | 0.20 | 85 | 1017.6 |
| 20260506042524 | 12 | 0 | 0.0 | 0.0 | 0.00 | 0.33 | 0.20 | 85 | 1017.6 |
| 20260506042019 | 12 | 0 | 0.0 | 3.2 | 0.00 | 0.33 | 0.20 | 85 | 1017.6 |
| 20260506041537 | 12 | 0 | 0.0 | 3.2 | 0.00 | 0.33 | 0.20 | 85 | 1017.4 |
| 20260506041018 | 12 | 0 | 0.0 | 4.8 | 0.00 | 0.33 | 0.20 | 85 | 1017.3 |
| 20260506040518 | 12 | 0 | 0.0 | 4.8 | 0.00 | 0.33 | 0.20 | 85 | 1017.2 |
| 20260506040044 | 12 | 282 | 0.0 | 3.2 | 0.00 | 0.33 | 0.20 | 84 | 1017.0 |
| 20260506035521 | 12 | 0 | 0.0 | 3.2 | 0.00 | 0.33 | 0.20 | 85 | 1017.1 |
| 20260506035018 | 12 | 0 | 0.0 | 4.8 | 0.00 | 0.33 | 0.20 | 84 | 1017.1 |
| 20260506034541 | 12 | 252 | 0.0 | 4.8 | 0.00 | 0.33 | 0.20 | 84 | 1016.9 |
| 20260506034018 | 12 | 268 | 0.0 | 4.8 | 0.00 | 0.33 | 0.20 | 84 | 1016.9 |
| 20260506033519 | 12 | 0 | 0.0 | 4.8 | 0.00 | 0.33 | 0.20 | 84 | 1016.8 |
| 20260506033042 | 12 | 267 | 0.0 | 4.8 | 0.00 | 0.33 | 0.20 | 84 | 1016.8 |
| 20260506032518 | 12 | 276 | 0.0 | 3.2 | 0.00 | 0.33 | 0.20 | 83 | 1016.7 |
| 20260506032019 | 12 | 0 | 0.0 | 4.8 | 0.00 | 0.33 | 0.20 | 84 | 1016.6 |
| 20260506031540 | 12 | 0 | 0.0 | 4.8 | 0.00 | 0.33 | 0.20 | 83 | 1016.5 |
| 20260506031018 | 12 | 259 | 0.0 | 6.4 | 0.00 | 0.33 | 0.20 | 83 | 1016.5 |
| 20260506030519 | 12 | 0 | 0.0 | 6.4 | 0.00 | 0.33 | 0.20 | 83 | 1016.4 |
| 20260506030055 | 12 | 271 | 0.0 | 6.4 | 0.00 | 0.33 | 0.20 | 83 | 1016.4 |
| 20260506025518 | 12 | 293 | 1.6 | 6.4 | 0.00 | 0.33 | 0.20 | 83 | 1016.3 |
| 20260506025022 | 12 | 0 | 0.0 | 6.4 | 0.00 | 0.33 | 0.20 | 84 | 1016.3 |
| 20260506024550 | 12 | 267 | 1.6 | 6.4 | 0.00 | 0.33 | 0.20 | 83 | 1016.4 |
| 20260506024018 | 12 | 0 | 1.6 | 6.4 | 0.00 | 0.33 | 0.20 | 83 | 1016.3 |
| 20260506023519 | 12 | 284 | 0.0 | 6.4 | 0.00 | 0.33 | 0.20 | 83 | 1016.3 |
| 20260506023035 | 12 | 296 | 1.6 | 6.4 | 0.00 | 0.33 | 0.20 | 83 | 1016.2 |
| 20260506022518 | 13 | 0 | 1.6 | 9.7 | 0.00 | 0.33 | 0.20 | 83 | 1016.1 |
| 20260506022018 | 13 | 274 | 1.6 | 9.7 | 0.00 | 0.33 | 0.20 | 82 | 1015.9 |
| 20260506021542 | 13 | 288 | 3.2 | 9.7 | 0.00 | 0.33 | 0.20 | 82 | 1015.8 |
| 20260506021018 | 13 | 0 | 1.6 | 9.7 | 0.00 | 0.33 | 0.20 | 83 | 1015.8 |
| 20260506020522 | 13 | 295 | 1.6 | 9.7 | 0.00 | 0.33 | 0.20 | 83 | 1015.9 |
| 20260506020040 | 13 | 283 | 3.2 | 9.7 | 0.00 | 0.33 | 0.20 | 82 | 1015.9 |
| 20260506015518 | 13 | 276 | 3.2 | 9.7 | 0.00 | 0.33 | 0.20 | 83 | 1015.7 |
| 20260506015018 | 13 | 0 | 1.6 | 8.0 | 0.00 | 0.33 | 0.20 | 83 | 1015.9 |
| 20260506014552 | 13 | 270 | 1.6 | 11.3 | 0.00 | 0.33 | 0.20 | 82 | 1015.8 |
| 20260506014017 | 13 | 0 | 1.6 | 11.3 | 0.00 | 0.33 | 0.20 | 82 | 1015.8 |
| 20260506013518 | 13 | 262 | 1.6 | 8.0 | 0.00 | 0.33 | 0.20 | 82 | 1015.8 |
| 20260506013037 | 13 | 0 | 0.0 | 9.7 | 0.00 | 0.33 | 0.20 | 82 | 1015.9 |
| 20260506012519 | 13 | 0 | 1.6 | 11.3 | 0.00 | 0.33 | 0.20 | 81 | 1015.9 |
| 20260506012018 | 13 | 300 | 1.6 | 11.3 | 0.00 | 0.33 | 0.20 | 80 | 1016.0 |
| 20260506011539 | 13 | 292 | 4.8 | 11.3 | 0.00 | 0.33 | 0.20 | 79 | 1015.7 |
| 20260506011022 | 13 | 282 | 4.8 | 11.3 | 0.00 | 0.33 | 0.20 | 79 | 1015.9 |
| 20260506010518 | 13 | 292 | 1.6 | 9.7 | 0.00 | 0.33 | 0.20 | 79 | 1015.8 |
| 20260506010050 | 13 | 252 | 3.2 | 9.7 | 0.00 | 0.33 | 0.20 | 80 | 1015.8 |
| 20260506005518 | 13 | 298 | 6.4 | 9.7 | 0.00 | 0.33 | 0.20 | 78 | 1015.7 |
| 20260506005018 | 14 | 271 | 1.6 | 9.7 | 0.00 | 0.33 | 0.20 | 77 | 1015.8 |
| 20260506004549 | 13 | 200 | 3.2 | 9.7 | 0.00 | 0.33 | 0.20 | 78 | 1015.8 |
| 20260506004021 | 14 | 271 | 3.2 | 9.7 | 0.00 | 0.33 | 0.20 | 77 | 1015.7 |
| 20260506003519 | 14 | 283 | 3.2 | 9.7 | 0.00 | 0.33 | 0.20 | 76 | 1015.5 |
| 20260506003042 | 14 | 288 | 3.2 | 9.7 | 0.00 | 0.33 | 0.20 | 79 | 1015.5 |
| 20260506002520 | 14 | 268 | 0.0 | 9.7 | 0.00 | 0.33 | 0.20 | 78 | 1015.5 |
| 20260506002020 | 14 | 276 | 3.2 | 9.7 | 0.00 | 0.33 | 0.20 | 78 | 1015.5 |
| 20260506001538 | 14 | 0 | 3.2 | 9.7 | 0.00 | 0.33 | 0.20 | 79 | 1015.5 |
| 20260506001018 | 13 | 259 | 3.2 | 9.7 | 0.00 | 0.33 | 0.20 | 79 | 1015.4 |
| 20260506000518 | 14 | 274 | 3.2 | 11.3 | 0.00 | 0.33 | 0.20 | 79 | 1015.6 |
| 20260506000038 | 13 | 285 | 4.8 | 11.3 | 0.00 | 0.33 | 0.20 | 79 | 1015.4 |
| 20260505235517 | 13 | 255 | 3.2 | 11.3 | 0.00 | 0.33 | 0.20 | 81 | 1015.4 |
| 20260505235018 | 13 | 231 | 1.6 | 11.3 | 0.00 | 0.33 | 0.20 | 80 | 1015.4 |
| 20260505234537 | 13 | 293 | 4.8 | 11.3 | 0.00 | 0.33 | 0.20 | 80 | 1015.5 |
| 20260505234018 | 14 | 250 | 1.6 | 11.3 | 0.00 | 0.33 | 0.20 | 80 | 1015.6 |
| 20260505233521 | 13 | 290 | 3.2 | 12.9 | 0.00 | 0.33 | 0.20 | 79 | 1015.6 |
| 20260505233044 | 14 | 278 | 3.2 | 12.9 | 0.00 | 0.33 | 0.20 | 80 | 1015.6 |
| 20260505232553 | 14 | 281 | 3.2 | 12.9 | 0.00 | 0.33 | 0.20 | 79 | 1015.6 |
| 20260505232018 | 14 | 276 | 3.2 | 11.3 | 0.00 | 0.33 | 0.20 | 79 | 1015.6 |
| 20260505231542 | 14 | 253 | 6.4 | 11.3 | 0.00 | 0.33 | 0.20 | 79 | 1015.6 |
| 20260505231018 | 14 | 284 | 4.8 | 11.3 | 0.00 | 0.33 | 0.20 | 78 | 1015.5 |
| 20260505230519 | 14 | 279 | 4.8 | 11.3 | 0.00 | 0.33 | 0.20 | 79 | 1015.5 |
| 20260505230047 | 14 | 268 | 4.8 | 11.3 | 0.00 | 0.33 | 0.20 | 79 | 1015.4 |
| 20260505225518 | 14 | 276 | 6.4 | 11.3 | 0.00 | 0.33 | 0.20 | 77 | 1015.4 |
| 20260505225022 | 14 | 271 | 4.8 | 11.3 | 0.00 | 0.33 | 0.20 | 78 | 1015.4 |
| 20260505224546 | 14 | 289 | 3.2 | 11.3 | 0.00 | 0.33 | 0.20 | 79 | 1015.3 |
| 20260505224018 | 14 | 256 | 4.8 | 12.9 | 0.00 | 0.33 | 0.20 | 80 | 1015.5 |
| 20260505223520 | 14 | 294 | 3.2 | 12.9 | 0.00 | 0.33 | 0.20 | 79 | 1015.4 |
| 20260505223037 | 14 | 264 | 6.4 | 12.9 | 0.00 | 0.33 | 0.20 | 79 | 1015.5 |
| 20260505222519 | 14 | 255 | 4.8 | 11.3 | 0.00 | 0.33 | 0.20 | 81 | 1015.4 |
| 20260505222020 | 13 | 286 | 4.8 | 11.3 | 0.00 | 0.33 | 0.20 | 81 | 1015.5 |
| 20260505221537 | 13 | 285 | 3.2 | 9.7 | 0.00 | 0.33 | 0.20 | 80 | 1015.8 |
| 20260505221019 | 13 | 255 | 3.2 | 9.7 | 0.00 | 0.33 | 0.20 | 81 | 1015.8 |
| 20260505220518 | 13 | 268 | 4.8 | 9.7 | 0.00 | 0.33 | 0.20 | 81 | 1015.8 |
| 20260505220043 | 13 | 275 | 4.8 | 9.7 | 0.00 | 0.33 | 0.20 | 80 | 1015.8 |
| 20260505215518 | 13 | 276 | 1.6 | 9.7 | 0.00 | 0.33 | 0.20 | 81 | 1015.9 |
| 20260505215022 | 13 | 248 | 3.2 | 9.7 | 0.00 | 0.33 | 0.20 | 82 | 1015.9 |
| 20260505214541 | 13 | 244 | 6.4 | 9.7 | 0.00 | 0.33 | 0.20 | 81 | 1016.0 |
| 20260505214020 | 13 | 280 | 1.6 | 11.3 | 0.00 | 0.33 | 0.20 | 81 | 1015.8 |
| 20260505213520 | 13 | 281 | 6.4 | 11.3 | 0.00 | 0.33 | 0.20 | 81 | 1015.8 |
| 20260505213046 | 14 | 269 | 1.6 | 9.7 | 0.00 | 0.33 | 0.20 | 79 | 1015.9 |
| 20260505212518 | 13 | 306 | 3.2 | 9.7 | 0.00 | 0.33 | 0.20 | 79 | 1015.9 |
| 20260505212020 | 14 | 290 | 3.2 | 8.0 | 0.00 | 0.33 | 0.20 | 80 | 1016.0 |
| 20260505211544 | 14 | 309 | 0.0 | 11.3 | 0.00 | 0.33 | 0.20 | 79 | 1016.0 |
| 20260505211018 | 13 | 0 | 1.6 | 11.3 | 0.00 | 0.33 | 0.20 | 79 | 1015.9 |
| 20260505210518 | 14 | 269 | 1.6 | 9.7 | 0.00 | 0.33 | 0.20 | 79 | 1016.0 |
| 20260505210037 | 14 | 0 | 0.0 | 9.7 | 0.00 | 0.33 | 0.20 | 78 | 1015.8 |
| 20260505205520 | 14 | 288 | 3.2 | 9.7 | 0.00 | 0.33 | 0.20 | 78 | 1015.9 |
| 20260505205017 | 14 | 0 | 3.2 | 8.0 | 0.00 | 0.33 | 0.20 | 79 | 1015.9 |
| 20260505204537 | 14 | 285 | 1.6 | 8.0 | 0.00 | 0.33 | 0.20 | 79 | 1016.1 |
| 20260505204020 | 14 | 290 | 3.2 | 8.0 | 0.00 | 0.33 | 0.20 | 79 | 1015.9 |
| 20260505203517 | 14 | 243 | 1.6 | 8.0 | 0.00 | 0.33 | 0.20 | 78 | 1015.9 |
| 20260505203044 | 14 | 0 | 1.6 | 9.7 | 0.00 | 0.33 | 0.20 | 78 | 1015.9 |
| 20260505202519 | 14 | 281 | 1.6 | 11.3 | 0.00 | 0.33 | 0.20 | 78 | 1016.0 |
| 20260505202100 | 14 | 267 | 3.2 | 11.3 | 0.00 | 0.33 | 0.20 | 77 | 1016.0 |
| 20260505201540 | 14 | 280 | 3.2 | 9.7 | 0.00 | 0.33 | 0.20 | 77 | 1015.9 |
| 20260505201019 | 14 | 258 | 4.8 | 9.7 | 0.00 | 0.33 | 0.20 | 77 | 1015.9 |
| 20260505200518 | 14 | 304 | 0.0 | 9.7 | 0.00 | 0.33 | 0.20 | 78 | 1016.0 |
| 20260505200041 | 14 | 0 | 0.0 | 9.7 | 0.00 | 0.33 | 0.20 | 78 | 1015.8 |
| 20260505195521 | 14 | 0 | 0.0 | 8.0 | 0.00 | 0.33 | 0.20 | 78 | 1016.0 |
| 20260505195017 | 14 | 284 | 0.0 | 9.7 | 0.00 | 0.33 | 0.20 | 80 | 1016.1 |
| 20260505194537 | 14 | 309 | 3.2 | 9.7 | 0.00 | 0.33 | 0.20 | 79 | 1016.1 |
| 20260505194018 | 14 | 0 | 0.0 | 9.7 | 0.00 | 0.33 | 0.20 | 77 | 1016.2 |
| 20260505193522 | 14 | 276 | 1.6 | 9.7 | 0.00 | 0.33 | 0.20 | 78 | 1016.1 |
| 20260505193054 | 14 | 270 | 1.6 | 8.0 | 0.00 | 0.33 | 0.20 | 79 | 1016.1 |
| 20260505192521 | 14 | 0 | 0.0 | 4.8 | 0.00 | 0.33 | 0.20 | 79 | 1016.2 |
| 20260505192018 | 14 | 0 | 0.0 | 4.8 | 0.00 | 0.33 | 0.20 | 79 | 1016.1 |
| 20260505191540 | 13 | 317 | 0.0 | 1.6 | 0.00 | 0.33 | 0.20 | 79 | 1016.1 |
| 20260505191018 | 13 | 0 | 0.0 | 3.2 | 0.00 | 0.33 | 0.20 | 79 | 1016.3 |
| 20260505190518 | 13 | 0 | 0.0 | 4.8 | 0.00 | 0.33 | 0.20 | 80 | 1015.9 |
| 20260505190043 | 13 | 0 | 0.0 | 8.0 | 0.00 | 0.33 | 0.20 | 81 | 1015.9 |
| 20260505185519 | 13 | 0 | 0.0 | 8.0 | 0.00 | 0.33 | 0.20 | 82 | 1015.9 |
| 20260505185018 | 13 | 283 | 1.6 | 8.0 | 0.00 | 0.33 | 0.20 | 81 | 1015.9 |
| 20260505184541 | 13 | 0 | 0.0 | 6.4 | 0.00 | 0.33 | 0.20 | 82 | 1015.8 |
| 20260505184018 | 13 | 270 | 0.0 | 6.4 | 0.00 | 0.33 | 0.20 | 81 | 1015.9 |
| 20260505183517 | 13 | 0 | 1.6 | 6.4 | 0.00 | 0.33 | 0.20 | 81 | 1015.9 |
| 20260505183037 | 13 | 268 | 0.0 | 4.8 | 0.00 | 0.33 | 0.20 | 82 | 1016.1 |
| 20260505182518 | 13 | 0 | 0.0 | 6.4 | 0.00 | 0.33 | 0.20 | 82 | 1016.0 |
| 20260505182019 | 13 | 0 | 0.0 | 6.4 | 0.00 | 0.33 | 0.20 | 82 | 1016.1 |
| 20260505181540 | 13 | 0 | 0.0 | 6.4 | 0.00 | 0.33 | 0.20 | 83 | 1016.0 |
| 20260505181019 | 13 | 0 | 0.0 | 3.2 | 0.00 | 0.33 | 0.20 | 83 | 1015.9 |
| 20260505180517 | 13 | 0 | 0.0 | 3.2 | 0.00 | 0.33 | 0.20 | 83 | 1015.9 |
| 20260505180045 | 13 | 0 | 0.0 | 3.2 | 0.00 | 0.33 | 0.20 | 83 | 1015.9 |
| 20260505175518 | 12 | 0 | 0.0 | 8.0 | 0.00 | 0.33 | 0.20 | 84 | 1015.7 |
| 20260505175018 | 12 | 0 | 0.0 | 8.0 | 0.00 | 0.33 | 0.20 | 83 | 1015.6 |
| 20260505174542 | 12 | 285 | 0.0 | 8.0 | 0.00 | 0.33 | 0.20 | 84 | 1015.6 |
| 20260505174018 | 12 | 297 | 0.0 | 6.4 | 0.00 | 0.33 | 0.20 | 84 | 1015.6 |
| 20260505173520 | 12 | 302 | 0.0 | 4.8 | 0.00 | 0.33 | 0.20 | 84 | 1015.7 |
| 20260505173041 | 12 | 290 | 0.0 | 4.8 | 0.00 | 0.33 | 0.20 | 84 | 1015.6 |
| 20260505172517 | 12 | 0 | 0.0 | 4.8 | 0.00 | 0.33 | 0.20 | 84 | 1015.5 |
| 20260505172018 | 12 | 291 | 0.0 | 6.4 | 0.00 | 0.33 | 0.20 | 85 | 1015.6 |
| 20260505171547 | 12 | 311 | 0.0 | 6.4 | 0.00 | 0.33 | 0.20 | 85 | 1015.6 |
| 20260505171019 | 12 | 299 | 0.0 | 6.4 | 0.00 | 0.33 | 0.20 | 85 | 1015.6 |
| 20260505170517 | 12 | 301 | 1.6 | 6.4 | 0.00 | 0.33 | 0.20 | 85 | 1015.5 |
| 20260505170041 | 12 | 296 | 0.0 | 4.8 | 0.00 | 0.33 | 0.20 | 85 | 1015.5 |
| 20260505165517 | 12 | 302 | 0.0 | 6.4 | 0.00 | 0.33 | 0.20 | 85 | 1015.5 |
| 20260505165017 | 12 | 0 | 0.0 | 6.4 | 0.00 | 0.33 | 0.20 | 85 | 1015.5 |
| 20260505164540 | 12 | 0 | 0.0 | 6.4 | 0.00 | 0.33 | 0.20 | 86 | 1015.6 |
| 20260505164017 | 12 | 0 | 0.0 | 6.4 | 0.00 | 0.33 | 0.20 | 86 | 1015.5 |
| 20260505163519 | 12 | 0 | 0.0 | 4.8 | 0.00 | 0.33 | 0.20 | 86 | 1015.6 |
| 20260505163043 | 12 | 0 | 0.0 | 4.8 | 0.00 | 0.33 | 0.20 | 86 | 1015.6 |
| 20260505162518 | 12 | 0 | 0.0 | 6.4 | 0.00 | 0.33 | 0.20 | 86 | 1015.6 |
| 20260505162020 | 11 | 290 | 0.0 | 6.4 | 0.00 | 0.33 | 0.20 | 86 | 1015.5 |
| 20260505161544 | 11 | 0 | 0.0 | 4.8 | 0.00 | 0.33 | 0.20 | 86 | 1015.5 |
| 20260505161018 | 11 | 0 | 0.0 | 4.8 | 0.00 | 0.33 | 0.20 | 86 | 1015.3 |
| 20260505160518 | 11 | 0 | 0.0 | 4.8 | 0.00 | 0.33 | 0.20 | 86 | 1015.3 |
| 20260505153045 | 11 | 296 | 0.0 | 6.4 | 0.00 | 0.33 | 0.20 | 86 | 1015.1 |
| 20260505152518 | 11 | 0 | 1.6 | 6.4 | 0.00 | 0.33 | 0.20 | 86 | 1015.0 |
| 20260505152024 | 11 | 0 | 0.0 | 4.8 | 0.00 | 0.33 | 0.20 | 86 | 1015.1 |
| 20260505151538 | 11 | 326 | 0.0 | 4.8 | 0.00 | 0.33 | 0.20 | 86 | 1015.0 |
| 20260505151018 | 11 | 293 | 0.0 | 4.8 | 0.00 | 0.33 | 0.20 | 86 | 1015.1 |
| 20260505150517 | 11 | 277 | 0.0 | 3.2 | 0.00 | 0.33 | 0.20 | 85 | 1015.0 |
| 20260505140518 | 11 | 281 | 0.0 | 4.8 | 0.00 | 0.33 | 0.20 | 86 | 1014.6 |
| 20260505125018 | 11 | 252 | 1.6 | 4.8 | 0.00 | 0.33 | 0.20 | 85 | 1014.3 |
| 20260505124537 | 11 | 0 | 0.0 | 6.4 | 0.00 | 0.33 | 0.20 | 85 | 1014.4 |
| 20260505124018 | 11 | 269 | 1.6 | 8.0 | 0.00 | 0.33 | 0.20 | 85 | 1014.3 |
| 20260505123518 | 11 | 253 | 1.6 | 8.0 | 0.00 | 0.33 | 0.20 | 85 | 1014.3 |
| 20260505123048 | 11 | 279 | 1.6 | 8.0 | 0.00 | 0.33 | 0.20 | 85 | 1014.3 |
| 20260505122517 | 11 | 268 | 1.6 | 6.4 | 0.00 | 0.33 | 0.20 | 85 | 1014.4 |
| 20260505122017 | 11 | 250 | 1.6 | 8.0 | 0.00 | 0.33 | 0.20 | 85 | 1014.2 |
| 20260505121535 | 11 | 270 | 1.6 | 8.0 | 0.00 | 0.33 | 0.20 | 85 | 1014.3 |
| 20260505121017 | 11 | 269 | 1.6 | 6.4 | 0.00 | 0.33 | 0.20 | 85 | 1014.3 |
| 20260505120516 | 11 | 274 | 1.6 | 8.0 | 0.00 | 0.33 | 0.20 | 85 | 1014.3 |
| 20260505120052 | 11 | 272 | 3.2 | 8.0 | 0.00 | 0.33 | 0.20 | 85 | 1014.1 |
| 20260505115518 | 11 | 271 | 0.0 | 6.4 | 0.00 | 0.33 | 0.20 | 85 | 1014.3 |
| 20260505115018 | 11 | 265 | 0.0 | 6.4 | 0.00 | 0.33 | 0.20 | 85 | 1014.2 |
| 20260505114541 | 11 | 266 | 0.0 | 6.4 | 0.00 | 0.33 | 0.20 | 85 | 1014.2 |
| 20260505114017 | 11 | 266 | 1.6 | 6.4 | 0.00 | 0.33 | 0.20 | 85 | 1014.3 |
| 20260505113517 | 11 | 0 | 1.6 | 6.4 | 0.00 | 0.33 | 0.20 | 84 | 1014.3 |
| 20260505113037 | 11 | 0 | 0.0 | 6.4 | 0.00 | 0.33 | 0.20 | 84 | 1014.4 |
| 20260505112520 | 11 | 270 | 0.0 | 4.8 | 0.00 | 0.33 | 0.20 | 84 | 1014.5 |
| 20260505112017 | 11 | 0 | 0.0 | 6.4 | 0.00 | 0.33 | 0.20 | 84 | 1014.6 |
| 20260505111538 | 11 | 262 | 1.6 | 6.4 | 0.00 | 0.33 | 0.20 | 84 | 1014.5 |
| 20260505111020 | 10 | 266 | 1.6 | 6.4 | 0.00 | 0.33 | 0.20 | 84 | 1014.3 |
| 20260505110518 | 10 | 277 | 1.6 | 6.4 | 0.00 | 0.33 | 0.20 | 84 | 1014.4 |